Location: Treviso
(45.6669°N, 12.2430°E)
Time: 03:14:00
(UTC+01:00)

ISS - Pass Details

Date: 22 September 2018
Orbit: 402 x 408 km, 51.6° (Epoch: 18 November)

Event Time Altitude Azimuth Distance (km) Brightness Sun altitude
Rises 20:11:36 0° 208° (SSW) 2,333 0.2 -11.7°
Reaches altitude 10° 20:13:56 10° 193° (SSW) 1,475 -1.0 -12.1°
Maximum altitude 20:16:38 23° 138° (SE) 915 -2.5 -12.5°
Enters shadow 20:17:17 22° 119° (ESE) 958 -2.5 -12.7°
